QPF
0.02 0.02 0.02 0.02 0.03 0.04 0.05 0.05 0.05 0.05 0.06 0.06 0.06 0.07 0.10 0.12 0.15 0.16 0.17 0.13 0.09 0.07 0.07 0.07 0.06 0.06 0.06 0.05 0.03 0.03 0.03 0.04 0.05 0.10 0.14 0.11 0.06 0.03 0.02 0.02 0.02 0.02 0.02
0.02 0.02 0.02 0.02 0.03 0.04 0.05 0.06 0.06 0.07 0.07 0.07 0.06 0.06 0.09 0.11 0.15 0.16 0.16 0.14 0.10 0.08 0.08 0.08 0.08 0.07 0.05 0.04 0.04 0.04 0.04 0.05 0.05 0.06 0.08 0.13 0.13 0.09 0.04 0.03 0.02 0.02 0.01
0.02 0.02 0.02 0.03 0.02 0.03 0.05 0.06 0.08 0.09 0.09 0.09 0.10 0.09 0.09 0.10 0.14 0.16 0.15 0.14 0.11 0.08 0.07 0.07 0.08 0.08 0.07 0.05 0.03 0.04 0.05 0.05 0.05 0.06 0.07 0.07 0.09 0.10 0.08 0.05 0.03 0.02 0.02
0.02 0.02 0.02 0.03 0.03 0.02 0.03 0.06 0.08 0.09 0.11 0.11 0.11 0.10 0.08 0.07 0.10 0.13 0.13 0.12 0.12 0.10 0.06 0.06 0.07 0.08 0.08 0.06 0.04 0.03 0.03 0.03 0.04 0.05 0.06 0.07 0.07 0.07 0.08 0.07 0.06 0.04 0.03
0.05 0.03 0.02 0.03 0.03 0.03 0.02 0.04 0.06 0.08 0.11 0.14 0.14 0.12 0.08 0.07 0.07 0.10 0.11 0.11 0.10 0.10 0.07 0.06 0.07 0.07 0.08 0.06 0.04 0.03 0.03 0.02 0.03 0.03 0.04 0.05 0.06 0.06 0.05 0.06 0.06 0.06 0.05
0.07 0.06 0.04 0.03 0.03 0.03 0.03 0.02 0.04 0.07 0.10 0.16 0.19 0.15 0.11 0.08 0.08 0.08 0.10 0.11 0.09 0.09 0.08 0.05 0.06 0.08 0.07 0.07 0.05 0.03 0.03 0.03 0.02 0.03 0.03 0.04 0.04 0.05 0.05 0.04 0.05 0.05 0.05
0.03 0.04 0.05 0.04 0.03 0.03 0.04 0.03 0.03 0.05 0.10 0.16 0.20 0.15 0.12 0.09 0.09 0.10 0.08 0.10 0.10 0.09 0.08 0.06 0.05 0.08 0.07 0.06 0.05 0.04 0.04 0.03 0.03 0.03 0.02 0.02 0.03 0.03 0.03 0.03 0.04 0.04 0.04
0.03 0.03 0.02 0.03 0.03 0.02 0.03 0.07 0.05 0.04 0.07 0.14 0.22 0.17 0.10 0.08 0.06 0.07 0.08 0.10 0.09 0.08 0.09 0.08 0.06 0.08 0.09 0.07 0.06 0.04 0.04 0.04 0.05 0.05 0.03 0.02 0.02 0.02 0.02 0.03 0.03 0.03 0.02
0.04 0.04 0.04 0.04 0.03 0.01 0.02 0.04 0.07 0.06 0.06 0.10 0.17 0.20 0.13 0.08 0.05 0.04 0.04 0.07 0.10 0.08 0.09 0.10 0.08 0.08 0.10 0.08 0.06 0.04 0.03 0.03 0.03 0.03 0.03 0.02 0.01 0.01 0.01 0.02 0.02 0.02 0.02
0.04 0.05 0.05 0.03 0.03 0.02 0.02 0.02 0.04 0.08 0.10 0.10 0.11 0.16 0.14 0.11 0.07 0.04 0.03 0.04 0.05 0.06 0.06 0.09 0.09 0.09 0.10 0.10 0.06 0.04 0.03 0.03 0.02 0.02 0.02 0.02 0.01 0.02 0.01 0.01 0.02 0.02 0.02
0.03 0.04 0.03 0.02 0.03 0.03 0.03 0.02 0.04 0.06 0.09 0.11 0.11 0.12 0.13 0.12 0.10 0.07 0.04 0.03 0.04 0.05 0.06 0.06 0.06 0.07 0.09 0.10 0.08 0.05 0.03 0.02 0.02 0.02 0.02 0.01 0.01 0.01 0.01 0.01 0.01 0.02 0.02
0.02 0.02 0.03 0.03 0.02 0.02 0.03 0.03 0.04 0.06 0.07 0.07 0.08 0.09 0.11 0.11 0.10 0.08 0.07 0.05 0.04 0.05 0.06 0.08 0.07 0.06 0.07 0.09 0.09 0.06 0.04 0.03 0.02 0.02 0.02 0.02 0.01 0.01 0.01 0.01 0.02 0.02 0.02
0.02 0.02 0.03 0.03 0.02 0.02 0.03 0.04 0.05 0.05 0.06 0.06 0.06 0.06 0.08 0.09 0.09 0.09 0.08 0.08 0.07 0.07 0.06 0.07 0.08 0.07 0.07 0.08 0.08 0.06 0.04 0.03 0.03 0.02 0.02 0.02 0.01 0.01 0.01 0.01 0.02 0.02 0.02
0.02 0.02 0.03 0.03 0.02 0.03 0.03 0.04 0.05 0.05 0.05 0.05 0.05 0.05 0.05 0.05 0.06 0.07 0.07 0.08 0.09 0.10 0.10 0.09 0.09 0.08 0.08 0.08 0.08 0.06 0.04 0.03 0.03 0.03 0.02 0.02 0.02 0.01 0.01 0.02 0.01 0.02 0.02
0.03 0.03 0.03 0.03 0.03 0.03 0.03 0.03 0.05 0.05 0.05 0.05 0.04 0.04 0.04 0.03 0.04 0.04 0.04 0.05 0.06 0.09 0.12 0.12 0.11 0.10 0.08 0.08 0.08 0.06 0.05 0.04 0.03 0.03 0.03 0.02 0.03 0.03 0.03 0.02 0.02 0.02 0.02
0.05 0.04 0.03 0.03 0.03 0.03 0.04 0.04 0.05 0.06 0.05 0.05 0.05 0.04 0.04 0.03 0.03 0.03 0.03 0.04 0.04 0.05 0.07 0.09 0.09 0.09 0.08 0.08 0.07 0.06 0.06 0.05 0.04 0.04 0.03 0.03 0.03 0.03 0.03 0.04 0.04 0.04 0.04
0.05 0.04 0.04 0.03 0.04 0.04 0.04 0.04 0.05 0.06 0.06 0.05 0.04 0.04 0.04 0.04 0.03 0.03 0.02 0.03 0.03 0.03 0.04 0.05 0.06 0.07 0.07 0.06 0.05 0.06 0.06 0.06 0.05 0.05 0.04 0.03 0.03 0.03 0.03 0.03 0.03 0.03 0.03
0.04 0.05 0.04 0.03 0.04 0.04 0.05 0.04 0.05 0.06 0.06 0.05 0.05 0.05 0.05 0.06 0.05 0.04 0.03 0.03 0.03 0.03 0.04 0.04 0.03 0.04 0.06 0.06 0.05 0.05 0.06 0.06 0.05 0.05 0.05 0.04 0.04 0.03 0.03 0.03 0.03 0.02 0.02
0.04 0.04 0.04 0.04 0.05 0.06 0.06 0.05 0.05 0.06 0.06 0.06 0.06 0.06 0.06 0.05 0.05 0.05 0.04 0.04 0.03 0.04 0.05 0.05 0.04 0.04 0.05 0.07 0.07 0.06 0.05 0.05 0.05 0.04 0.04 0.04 0.03 0.03 0.02 0.02 0.03 0.02 0.02
0.03 0.04 0.04 0.03 0.04 0.05 0.05 0.05 0.05 0.06 0.07 0.09 0.10 0.08 0.06 0.05 0.04 0.03 0.04 0.04 0.04 0.04 0.05 0.05 0.04 0.04 0.05 0.06 0.06 0.07 0.05 0.05 0.04 0.04 0.04 0.03 0.03 0.02 0.02 0.02 0.03 0.03 0.03
0.02 0.02 0.03 0.03 0.04 0.04 0.04 0.05 0.06 0.06 0.07 0.09 0.11 0.10 0.07 0.06 0.05 0.04 0.03 0.03 0.03 0.03 0.04 0.04 0.04 0.04 0.03 0.04 0.04 0.05 0.06 0.06 0.05 0.04 0.04 0.03 0.03 0.03 0.03 0.02 0.02 0.03 0.03
0.02 0.02 0.02 0.03 0.03 0.04 0.04 0.05 0.06 0.07 0.07 0.07 0.09 0.10 0.10 0.08 0.07 0.05 0.03 0.03 0.04 0.03 0.03 0.03 0.03 0.03 0.02 0.02 0.02 0.03 0.05 0.06 0.06 0.04 0.03 0.03 0.04 0.03 0.03 0.03 0.03 0.03 0.04
0.02 0.02 0.02 0.02 0.02 0.03 0.03 0.04 0.05 0.06 0.06 0.06 0.07 0.07 0.08 0.08 0.08 0.06 0.04 0.03 0.03 0.03 0.03 0.03 0.03 0.03 0.02 0.02 0.02 0.02 0.02 0.03 0.04 0.04 0.04 0.04 0.04 0.04 0.04 0.03 0.03 0.03 0.04
0.01 0.02 0.01 0.01 0.02 0.02 0.02 0.03 0.04 0.04 0.04 0.05 0.05 0.05 0.05 0.06 0.06 0.05 0.04 0.04 0.04 0.03 0.03 0.03 0.03 0.02 0.02 0.02 0.02 0.02 0.01 0.01 0.02 0.03 0.04 0.04 0.04 0.04 0.04 0.05 0.05 0.04 0.04
0.01 0.01 0.01 0.01 0.01 0.01 0.02 0.02 0.02 0.02 0.03 0.03 0.04 0.04 0.03 0.03 0.04 0.03 0.03 0.03 0.04 0.04 0.04 0.03 0.03 0.03 0.02 0.02 0.02 0.03 0.02 0.02 0.03 0.03 0.03 0.03 0.04 0.05 0.05 0.05 0.05 0.05 0.05
0.01 0.01 0.01 0.01 0.01 0.01 0.01 0.01 0.02 0.02 0.02 0.02 0.02 0.02 0.02 0.02 0.02 0.02 0.02 0.02 0.03 0.03 0.03 0.03 0.03 0.03 0.03 0.03 0.03 0.03 0.03 0.03 0.03 0.03 0.03 0.03 0.03 0.04 0.04 0.05 0.05 0.05 0.05
MSLP
1032.43 1031.83 1031.18 1030.54 1029.93 1029.35 1028.78 1028.20 1027.60 1026.95 1026.28 1025.59 1024.91 1024.26 1023.67 1023.11 1022.57 1022.00 1021.37 1020.64 1019.82 1018.92 1018.01 1017.16 1016.48 1016.04 1015.90 1016.09 1016.57 1017.30 1018.18 1019.13 1020.06 1020.90 1021.62 1022.20 1022.65 1023.01 1023.30 1023.54 1023.75 1023.94 1024.10
1032.42 1031.73 1030.99 1030.23 1029.50 1028.79 1028.12 1027.47 1026.82 1026.18 1025.52 1024.87 1024.24 1023.62 1023.04 1022.48 1021.92 1021.33 1020.67 1019.93 1019.11 1018.23 1017.34 1016.52 1015.84 1015.40 1015.22 1015.36 1015.78 1016.45 1017.31 1018.27 1019.24 1020.16 1021.00 1021.71 1022.32 1022.81 1023.22 1023.56 1023.85 1024.09 1024.29
1032.37 1031.61 1030.78 1029.91 1029.05 1028.22 1027.43 1026.69 1026.00 1025.33 1024.69 1024.07 1023.46 1022.88 1022.30 1021.73 1021.15 1020.52 1019.84 1019.09 1018.27 1017.41 1016.55 1015.76 1015.10 1014.64 1014.44 1014.52 1014.88 1015.49 1016.30 1017.25 1018.25 1019.25 1020.20 1021.05 1021.80 1022.44 1022.98 1023.42 1023.80 1024.10 1024.35
1032.23 1031.42 1030.51 1029.55 1028.57 1027.62 1026.72 1025.88 1025.12 1024.42 1023.77 1023.16 1022.57 1022.00 1021.43 1020.84 1020.23 1019.59 1018.89 1018.14 1017.33 1016.50 1015.68 1014.92 1014.28 1013.82 1013.58 1013.60 1013.90 1014.45 1015.22 1016.15 1017.18 1018.25 1019.29 1020.27 1021.15 1021.93 1022.58 1023.13 1023.59 1023.96 1024.27
1031.98 1031.14 1030.18 1029.14 1028.06 1026.99 1025.97 1025.03 1024.19 1023.44 1022.76 1022.14 1021.56 1020.98 1020.41 1019.82 1019.21 1018.55 1017.86 1017.12 1016.35 1015.56 1014.78 1014.05 1013.43 1012.97 1012.70 1012.68 1012.91 1013.40 1014.13 1015.05 1016.10 1017.22 1018.35 1019.43 1020.43 1021.31 1022.07 1022.71 1023.24 1023.67 1024.04
1031.64 1030.78 1029.78 1028.67 1027.50 1026.32 1025.19 1024.15 1023.22 1022.40 1021.67 1021.03 1020.43 1019.86 1019.29 1018.71 1018.10 1017.46 1016.79 1016.09 1015.37 1014.63 1013.90 1013.22 1012.61 1012.14 1011.85 1011.78 1011.96 1012.40 1013.09 1013.99 1015.06 1016.23 1017.42 1018.59 1019.68 1020.65 1021.48 1022.19 1022.77 1023.26 1023.67
1031.22 1030.34 1029.31 1028.15 1026.90 1025.63 1024.40 1023.25 1022.21 1021.31 1020.52 1019.84 1019.22 1018.64 1018.08 1017.52 1016.94 1016.35 1015.74 1015.10 1014.43 1013.76 1013.08 1012.44 1011.85 1011.38 1011.06 1010.94 1011.07 1011.47 1012.13 1013.02 1014.10 1015.30 1016.55 1017.78 1018.93 1019.96 1020.84 1021.59 1022.21 1022.74 1023.20
1030.78 1029.87 1028.81 1027.59 1026.28 1024.92 1023.58 1022.33 1021.19 1020.20 1019.34 1018.59 1017.94 1017.36 1016.81 1016.28 1015.76 1015.23 1014.69 1014.13 1013.55 1012.95 1012.33 1011.72 1011.15 1010.66 1010.32 1010.16 1010.25 1010.61 1011.24 1012.13 1013.22 1014.46 1015.74 1017.02 1018.20 1019.27 1020.18 1020.94 1021.59 1022.14 1022.64
1030.36 1029.41 1028.30 1027.03 1025.65 1024.21 1022.78 1021.42 1020.17 1019.07 1018.12 1017.31 1016.61 1016.01 1015.47 1014.98 1014.52 1014.07 1013.62 1013.16 1012.67 1012.15 1011.59 1011.02 1010.47 1009.98 1009.61 1009.42 1009.47 1009.79 1010.41 1011.30 1012.41 1013.66 1014.98 1016.28 1017.50 1018.58 1019.50 1020.27 1020.92 1021.50 1022.02
1029.99 1028.99 1027.83 1026.50 1025.05 1023.53 1022.00 1020.53 1019.17 1017.95 1016.89 1015.98 1015.22 1014.57 1014.03 1013.56 1013.16 1012.80 1012.45 1012.10 1011.71 1011.28 1010.80 1010.28 1009.75 1009.26 1008.88 1008.67 1008.70 1009.01 1009.62 1010.51 1011.63 1012.91 1014.26 1015.58 1016.81 1017.90 1018.82 1019.59 1020.24 1020.82 1021.37
1029.70 1028.64 1027.42 1026.03 1024.51 1022.90 1021.27 1019.68 1018.19 1016.84 1015.64 1014.60 1013.74 1013.02 1012.43 1011.98 1011.61 1011.33 1011.08 1010.84 1010.57 1010.25 1009.86 1009.41 1008.92 1008.46 1008.09 1007.88 1007.91 1008.22 1008.84 1009.75 1010.89 1012.19 1013.55 1014.90 1016.14 1017.23 1018.14 1018.91 1019.56 1020.14 1020.71
1029.51 1028.38 1027.09 1025.64 1024.04 1022.34 1020.61 1018.89 1017.26 1015.74 1014.38 1013.18 1012.16 1011.32 1010.66 1010.17 1009.82 1009.58 1009.42 1009.29 1009.15 1008.96 1008.69 1008.34 1007.94 1007.54 1007.22 1007.05 1007.10 1007.43 1008.07 1009.00 1010.17 1011.49 1012.88 1014.23 1015.48 1016.58 1017.49 1018.25 1018.89 1019.47 1020.04
1029.40 1028.21 1026.86 1025.33 1023.66 1021.87 1020.03 1018.19 1016.39 1014.70 1013.13 1011.73 1010.52 1009.51 1008.72 1008.14 1007.76 1007.55 1007.46 1007.44 1007.43 1007.38 1007.26 1007.06 1006.78 1006.50 1006.26 1006.17 1006.28 1006.65 1007.33 1008.29 1009.48 1010.82 1012.22 1013.59 1014.85 1015.94 1016.86 1017.61 1018.25 1018.82 1019.39
1029.37 1028.13 1026.71 1025.13 1023.39 1021.52 1019.58 1017.61 1015.65 1013.75 1011.97 1010.33 1008.88 1007.66 1006.68 1005.97 1005.52 1005.29 1005.24 1005.32 1005.45 1005.56 1005.62 1005.59 1005.49 1005.36 1005.26 1005.27 1005.46 1005.91 1006.62 1007.62 1008.82 1010.18 1011.59 1012.97 1014.23 1015.32 1016.24 1016.99 1017.62 1018.19 1018.74
1029.40 1028.12 1026.66 1025.02 1023.23 1021.31 1019.28 1017.19 1015.08 1012.99 1010.97 1009.08 1007.37 1005.90 1004.70 1003.81 1003.24 1002.96 1002.93 1003.08 1003.33 1003.62 1003.87 1004.04 1004.14 1004.19 1004.26 1004.40 1004.70 1005.21 1005.98 1006.99 1008.21 1009.56 1010.96 1012.33 1013.59 1014.69 1015.61 1016.36 1017.00 1017.56 1018.11
1029.47 1028.16 1026.67 1025.02 1023.20 1021.25 1019.17 1017.00 1014.75 1012.49 1010.26 1008.12 1006.15 1004.41 1002.96 1001.87 1001.15 1000.78 1000.73 1000.93 1001.29 1001.73 1002.17 1002.55 1002.86 1003.10 1003.33 1003.62 1004.01 1004.59 1005.39 1006.41 1007.61 1008.94 1010.32 1011.66 1012.91 1014.01 1014.93 1015.70 1016.35 1016.92 1017.46
1029.56 1028.23 1026.74 1025.10 1023.30 1021.35 1019.27 1017.06 1014.74 1012.35 1009.95 1007.60 1005.38 1003.39 1001.70 1000.39 999.50 999.02 998.92 999.14 999.57 1000.13 1000.72 1001.28 1001.77 1002.19 1002.57 1002.97 1003.45 1004.07 1004.87 1005.86 1007.02 1008.29 1009.62 1010.93 1012.15 1013.24 1014.17 1014.96 1015.63 1016.23 1016.79
1029.62 1028.31 1026.85 1025.25 1023.51 1021.63 1019.60 1017.42 1015.09 1012.64 1010.13 1007.62 1005.22 1003.02 1001.13 999.62 998.57 997.96 997.78 997.96 998.42 999.04 999.74 1000.42 1001.04 1001.58 1002.06 1002.53 1003.05 1003.66 1004.43 1005.35 1006.43 1007.62 1008.87 1010.11 1011.29 1012.36 1013.30 1014.12 1014.82 1015.46 1016.05
1029.63 1028.35 1026.95 1025.44 1023.81 1022.05 1020.13 1018.05 1015.78 1013.36 1010.83 1008.26 1005.75 1003.42 1001.38 999.72 998.51 997.78 997.50 997.62 998.04 998.66 999.38 1000.11 1000.78 1001.37 1001.89 1002.36 1002.86 1003.42 1004.10 1004.92 1005.88 1006.95 1008.09 1009.24 1010.35 1011.39 1012.33 1013.17 1013.91 1014.59 1015.23
1029.54 1028.33 1027.03 1025.64 1024.17 1022.57 1020.83 1018.91 1016.78 1014.47 1012.01 1009.47 1006.96 1004.58 1002.46 1000.71 999.39 998.55 998.16 998.18 998.52 999.08 999.75 1000.44 1001.07 1001.63 1002.10 1002.52 1002.94 1003.40 1003.95 1004.63 1005.43 1006.35 1007.35 1008.38 1009.41 1010.39 1011.31 1012.15 1012.92 1013.64 1014.32
1029.34 1028.22 1027.05 1025.83 1024.54 1023.15 1021.63 1019.92 1018.01 1015.88 1013.58 1011.17 1008.74 1006.42 1004.31 1002.53 1001.16 1000.23 999.74 999.65 999.87 1000.30 1000.85 1001.42 1001.95 1002.40 1002.76 1003.06 1003.34 1003.66 1004.05 1004.56 1005.19 1005.94 1006.77 1007.66 1008.57 1009.47 1010.33 1011.14 1011.91 1012.65 1013.36
1029.04 1028.05 1027.02 1025.98 1024.90 1023.75 1022.47 1021.01 1019.34 1017.46 1015.38 1013.18 1010.93 1008.75 1006.74 1005.01 1003.65 1002.68 1002.11 1001.90 1001.97 1002.25 1002.63 1003.03 1003.39 1003.67 1003.87 1004.02 1004.14 1004.29 1004.51 1004.83 1005.28 1005.84 1006.50 1007.22 1007.99 1008.76 1009.52 1010.27 1010.99 1011.70 1012.41
1028.67 1027.82 1026.96 1026.12 1025.25 1024.32 1023.29 1022.09 1020.69 1019.08 1017.28 1015.34 1013.33 1011.36 1009.53 1007.92 1006.62 1005.66 1005.04 1004.73 1004.66 1004.76 1004.95 1005.15 1005.31 1005.40 1005.42 1005.40 1005.35 1005.34 1005.39 1005.54 1005.81 1006.18 1006.66 1007.20 1007.79 1008.41 1009.04 1009.66 1010.28 1010.91 1011.55
1028.28 1027.59 1026.91 1026.24 1025.57 1024.86 1024.05 1023.09 1021.95 1020.62 1019.11 1017.46 1015.74 1014.03 1012.42 1010.99 1009.81 1008.90 1008.27 1007.88 1007.69 1007.62 1007.63 1007.63 1007.60 1007.51 1007.36 1007.17 1006.98 1006.83 1006.74 1006.74 1006.85 1007.06 1007.35 1007.71 1008.11 1008.54 1008.98 1009.43 1009.90 1010.39 1010.91
1027.94 1027.41 1026.89 1026.39 1025.89 1025.35 1024.72 1023.98 1023.07 1021.99 1020.76 1019.40 1017.98 1016.55 1015.20 1013.99 1012.96 1012.14 1011.53 1011.10 1010.82 1010.62 1010.47 1010.30 1010.11 1009.86 1009.58 1009.27 1008.98 1008.72 1008.53 1008.43 1008.41 1008.47 1008.61 1008.78 1008.99 1009.21 1009.44 1009.68 1009.95 1010.24 1010.59
1027.71 1027.33 1026.95 1026.58 1026.21 1025.80 1025.32 1024.73 1024.01 1023.15 1022.17 1021.08 1019.94 1018.80 1017.71 1016.72 1015.87 1015.17 1014.61 1014.18 1013.84 1013.55 1013.28 1012.99 1012.68 1012.32 1011.95 1011.58 1011.23 1010.92 1010.68 1010.52 1010.42 1010.38 1010.37 1010.39 1010.40 1010.42 1010.42 1010.44 1010.47 1010.54 1010.67
Thickness
5488 5490 5492 5495 5499 5503 5507 5512 5517 5522 5528 5532 5536 5540 5543 5547 5551 5554 5556 5559 5561 5564 5565 5567 5568 5570 5573 5575 5577 5578 5579 5580 5582 5583 5583 5583 5586 5588 5589 5590 5591 5592 5593
5476 5480 5482 5484 5487 5491 5496 5502 5507 5512 5517 5522 5526 5530 5534 5538 5541 5544 5547 5550 5552 5554 5557 5558 5560 5561 5563 5565 5567 5568 5569 5570 5573 5573 5573 5572 5573 5576 5579 5580 5581 5582 5583
5464 5468 5471 5473 5475 5479 5484 5491 5496 5501 5506 5511 5515 5519 5522 5526 5530 5533 5537 5539 5542 5545 5547 5549 5550 5552 5554 5555 5557 5559 5560 5561 5562 5565 5565 5563 5564 5564 5567 5569 5571 5572 5573
5454 5457 5460 5461 5464 5468 5473 5479 5485 5490 5495 5499 5504 5507 5512 5516 5519 5523 5526 5528 5530 5533 5537 5539 5541 5542 5544 5545 5548 5550 5551 5552 5552 5554 5556 5557 5557 5556 5556 5558 5560 5561 5563
5444 5447 5449 5451 5454 5457 5462 5468 5473 5479 5483 5488 5493 5497 5501 5505 5508 5512 5515 5517 5520 5523 5526 5529 5531 5532 5534 5536 5538 5539 5541 5542 5543 5543 5544 5546 5547 5549 5549 5548 5549 5551 5553
5435 5437 5439 5442 5444 5448 5452 5457 5462 5467 5472 5476 5481 5485 5489 5493 5496 5500 5503 5507 5510 5512 5515 5519 5522 5523 5524 5526 5528 5529 5530 5531 5533 5533 5535 5536 5538 5539 5539 5540 5540 5541 5542
5427 5428 5430 5433 5435 5438 5442 5446 5451 5456 5460 5465 5469 5473 5477 5481 5485 5489 5492 5496 5499 5501 5505 5509 5512 5513 5515 5516 5518 5519 5520 5521 5522 5523 5525 5527 5529 5530 5531 5531 5531 5532 5533
5417 5419 5421 5423 5425 5428 5432 5436 5440 5445 5449 5454 5457 5461 5465 5468 5473 5477 5481 5485 5488 5491 5494 5498 5501 5503 5504 5506 5508 5510 5510 5511 5512 5513 5514 5516 5518 5520 5521 5522 5521 5521 5523
5409 5410 5412 5414 5416 5419 5422 5426 5430 5435 5439 5442 5446 5449 5453 5456 5460 5464 5468 5472 5476 5480 5484 5488 5490 5492 5494 5496 5498 5499 5500 5501 5502 5502 5504 5505 5506 5508 5510 5512 5513 5512 5513
5401 5402 5404 5406 5408 5410 5413 5417 5421 5424 5428 5432 5436 5439 5442 5445 5448 5452 5457 5461 5465 5469 5472 5475 5479 5481 5483 5485 5486 5488 5489 5489 5490 5491 5493 5494 5495 5496 5498 5500 5501 5503 5503
5394 5395 5396 5397 5399 5402 5405 5407 5411 5414 5417 5420 5424 5428 5432 5435 5437 5441 5445 5450 5454 5458 5461 5464 5467 5470 5472 5474 5476 5477 5478 5479 5479 5480 5482 5483 5484 5485 5486 5487 5489 5490 5491
5387 5388 5389 5390 5392 5394 5396 5398 5401 5404 5407 5410 5413 5417 5421 5424 5427 5430 5435 5438 5443 5447 5450 5454 5457 5460 5462 5463 5465 5467 5468 5469 5469 5471 5471 5472 5473 5474 5475 5476 5478 5479 5481
5379 5380 5380 5381 5383 5385 5388 5390 5393 5396 5398 5400 5404 5407 5410 5413 5417 5420 5423 5427 5432 5435 5439 5442 5445 5449 5451 5453 5455 5457 5458 5459 5460 5461 5462 5463 5463 5464 5465 5466 5467 5468 5470
5372 5372 5372 5373 5374 5377 5379 5381 5383 5386 5389 5391 5395 5398 5399 5402 5406 5409 5413 5417 5421 5424 5428 5431 5436 5439 5441 5442 5444 5446 5448 5448 5450 5451 5452 5453 5454 5455 5455 5456 5457 5457 5458
5365 5365 5364 5365 5366 5368 5370 5372 5374 5376 5379 5382 5385 5388 5390 5392 5395 5399 5402 5406 5410 5413 5417 5421 5425 5427 5429 5432 5433 5435 5437 5438 5439 5440 5441 5443 5444 5445 5446 5447 5447 5447 5447
5358 5358 5357 5356 5357 5359 5361 5363 5365 5367 5369 5372 5375 5378 5380 5383 5386 5389 5392 5396 5399 5403 5406 5410 5413 5415 5418 5421 5423 5424 5426 5427 5428 5430 5430 5432 5433 5434 5435 5436 5437 5437 5437
5348 5349 5348 5348 5349 5350 5352 5353 5356 5358 5360 5362 5365 5368 5371 5373 5376 5379 5383 5386 5389 5393 5396 5399 5402 5404 5407 5410 5412 5413 5415 5416 5417 5419 5420 5421 5422 5423 5423 5424 5425 5426 5426
5340 5340 5339 5340 5341 5342 5344 5346 5348 5349 5351 5353 5355 5358 5361 5364 5368 5370 5373 5376 5379 5382 5386 5389 5392 5394 5397 5399 5401 5402 5404 5405 5406 5407 5409 5410 5411 5412 5412 5413 5413 5414 5414
5331 5331 5331 5331 5332 5334 5336 5338 5339 5340 5342 5344 5346 5348 5351 5355 5358 5361 5363 5365 5368 5372 5375 5378 5381 5384 5386 5388 5390 5392 5393 5394 5396 5397 5398 5399 5401 5402 5402 5402 5402 5403 5403
5323 5323 5324 5324 5325 5326 5327 5329 5330 5330 5332 5334 5336 5338 5341 5344 5348 5350 5353 5356 5359 5362 5364 5367 5370 5374 5376 5377 5379 5381 5383 5385 5386 5387 5388 5389 5391 5391 5391 5391 5391 5391 5392
5315 5315 5315 5315 5316 5317 5318 5319 5320 5320 5322 5324 5326 5329 5331 5333 5336 5339 5342 5344 5347 5350 5353 5356 5360 5362 5365 5367 5369 5371 5373 5374 5376 5377 5378 5379 5381 5381 5381 5381 5381 5382 5381
5308 5307 5306 5306 5306 5307 5307 5309 5309 5311 5312 5314 5316 5319 5320 5323 5326 5328 5331 5333 5336 5339 5341 5345 5348 5351 5354 5356 5359 5361 5363 5365 5366 5367 5368 5369 5370 5371 5371 5371 5371 5371 5370
5299 5298 5297 5297 5297 5297 5297 5298 5300 5301 5303 5304 5305 5307 5309 5312 5315 5317 5320 5323 5325 5327 5330 5334 5337 5340 5343 5345 5348 5351 5353 5354 5355 5356 5358 5359 5359 5359 5359 5359 5359 5358 5358
5290 5289 5288 5287 5288 5288 5289 5289 5291 5292 5293 5294 5296 5297 5299 5301 5304 5306 5309 5311 5313 5315 5319 5323 5326 5328 5331 5334 5336 5339 5341 5343 5345 5346 5347 5347 5347 5347 5347 5346 5346 5346 5347
5281 5280 5278 5278 5279 5280 5281 5282 5282 5283 5283 5285 5286 5287 5289 5291 5293 5296 5298 5301 5303 5306 5309 5312 5315 5318 5321 5324 5326 5329 5331 5333 5334 5335 5335 5334 5333 5333 5333 5333 5334 5334 5335
5272 5271 5270 5270 5270 5271 5272 5273 5274 5274 5275 5276 5277 5278 5279 5281 5283 5284 5287 5290 5294 5297 5300 5302 5305 5308 5311 5314 5316 5318 5320 5322 5323 5322 5321 5320 5321 5321 5322 5322 5322 5323 5323